| time (UTC) | temp F | wind direction | speed knots | gust knots | rain 1hr in | rain 24hr in | rain mn in | humidity % | barometer mb |
| 20260503204525 | 64 | 295 | 0.9 | 9.6 | 0.00 | 0.00 | 0.00 | 39 | 1015.7 |
| 20260503203024 | 64 | 332 | 2.6 | 8.7 | 0.00 | 0.00 | 0.00 | 37 | 1015.8 |
| 20260503201523 | 64 | 257 | 1.7 | 7.8 | 0.00 | 0.00 | 0.00 | 39 | 1016.0 |
| 20260503200022 | 65 | 346 | 3.5 | 8.7 | 0.00 | 0.00 | 0.00 | 37 | 1016.3 |
| 20260503194520 | 64 | 302 | 0.0 | 7.0 | 0.00 | 0.00 | 0.00 | 39 | 1016.5 |
| 20260503193018 | 63 | 314 | 2.6 | 10.4 | 0.00 | 0.00 | 0.00 | 38 | 1016.7 |
| 20260503191516 | 63 | 295 | 0.0 | 0.9 | 0.00 | 0.00 | 0.00 | 40 | 1016.8 |
| 20260503190035 | 63 | 11 | 0.0 | 0.0 | 0.00 | 0.00 | 0.00 | 37 | 1017.0 |
| 20260503184512 | 62 | 85 | 0.0 | 0.0 | 0.00 | 0.00 | 0.00 | 39 | 1017.3 |
| 20260503183015 | 62 | 179 | 0.0 | 8.7 | 0.00 | 0.00 | 0.00 | 42 | 1017.2 |
| 20260503181506 | 61 | 321 | 0.9 | 8.7 | 0.00 | 0.00 | 0.00 | 43 | 1017.5 |
| 20260503180010 | 60 | 13 | 2.6 | 7.8 | 0.00 | 0.00 | 0.00 | 43 | 1017.8 |
| 20260503174505 | 60 | 315 | 0.9 | 5.2 | 0.00 | 0.00 | 0.00 | 43 | 1017.8 |
| 20260503173115 | 59 | 51 | 0.0 | 7.8 | 0.00 | 0.00 | 0.00 | 43 | 1018.1 |
| 20260503171557 | 59 | 120 | 1.7 | 5.2 | 0.00 | 0.00 | 0.00 | 44 | 1018.4 |
| 20260503081535 | 36 | 327 | 0.0 | 0.0 | 0.00 | 0.00 | 0.00 | 90 | 1016.7 |
| 20260503071516 | 37 | 327 | 0.0 | 0.0 | 0.00 | 0.00 | 0.00 | 88 | 1016.1 |
| 20260503054600 | 39 | 328 | 0.0 | 0.0 | 0.00 | 0.00 | 0.00 | 83 | 1015.7 |
| 20260503053059 | 39 | 328 | 0.0 | 0.0 | 0.00 | 0.00 | 0.00 | 83 | 1015.8 |
| 20260503051600 | 39 | 328 | 0.0 | 0.0 | 0.00 | 0.00 | 0.00 | 83 | 1015.7 |
| 20260503050055 | 40 | 327 | 0.0 | 0.0 | 0.00 | 0.00 | 0.00 | 84 | 1015.5 |
| 20260503044553 | 40 | 328 | 0.0 | 0.0 | 0.00 | 0.00 | 0.00 | 82 | 1015.6 |
| 20260503043054 | 40 | 328 | 0.0 | 0.0 | 0.00 | 0.00 | 0.00 | 81 | 1015.5 |
| 20260503041548 | 40 | 328 | 0.0 | 0.0 | 0.00 | 0.00 | 0.00 | 81 | 1015.4 |
| 20260503040045 | 41 | 292 | 0.0 | 0.0 | 0.00 | 0.00 | 0.00 | 79 | 1015.1 |
| 20260503034542 | 42 | 5 | 0.0 | 0.0 | 0.00 | 0.00 | 0.00 | 77 | 1015.0 |
| 20260503033044 | 42 | 5 | 0.0 | 0.0 | 0.00 | 0.00 | 0.00 | 75 | 1014.9 |
| 20260503031528 | 43 | 5 | 0.0 | 0.0 | 0.00 | 0.00 | 0.00 | 73 | 1014.8 |
| 20260503030025 | 44 | 5 | 0.0 | 0.0 | 0.00 | 0.00 | 0.00 | 72 | 1014.7 |
| 20260503024522 | 45 | 5 | 0.0 | 0.0 | 0.00 | 0.00 | 0.00 | 68 | 1014.5 |
| 20260503023019 | 46 | 5 | 0.0 | 0.0 | 0.00 | 0.00 | 0.00 | 67 | 1014.4 |
| 20260503021515 | 47 | 5 | 0.0 | 0.0 | 0.00 | 0.00 | 0.00 | 66 | 1014.3 |
| 20260503020012 | 48 | 5 | 0.0 | 0.0 | 0.00 | 0.00 | 0.00 | 60 | 1014.1 |
| 20260503014509 | 49 | 5 | 0.0 | 0.0 | 0.00 | 0.00 | 0.00 | 58 | 1013.8 |
| 20260503013006 | 50 | 5 | 0.0 | 0.0 | 0.00 | 0.00 | 0.00 | 56 | 1013.6 |
| 20260503011504 | 51 | 10 | 0.0 | 0.0 | 0.00 | 0.00 | 0.00 | 52 | 1013.4 |
| 20260503010002 | 51 | 296 | 0.0 | 0.0 | 0.00 | 0.00 | 0.00 | 49 | 1013.2 |
| 20260503004504 | 52 | 248 | 0.0 | 0.0 | 0.00 | 0.00 | 0.00 | 46 | 1013.0 |
| 20260503003100 | 52 | 300 | 0.0 | 2.6 | 0.00 | 0.00 | 0.00 | 46 | 1012.7 |
| 20260503001558 | 53 | 302 | 0.0 | 8.7 | 0.00 | 0.00 | 0.00 | 45 | 1012.6 |
| 20260503000056 | 53 | 304 | 0.0 | 11.3 | 0.00 | 0.00 | 0.00 | 44 | 1012.3 |
| 20260502234557 | 54 | 292 | 0.0 | 7.8 | 0.00 | 0.00 | 0.00 | 44 | 1011.9 |
| 20260502233055 | 54 | 235 | 0.0 | 14.8 | 0.00 | 0.00 | 0.00 | 41 | 1011.8 |
| 20260502231554 | 55 | 326 | 4.3 | 13.0 | 0.00 | 0.00 | 0.00 | 40 | 1011.6 |
| 20260502230054 | 56 | 360 | 7.8 | 18.2 | 0.00 | 0.00 | 0.00 | 39 | 1011.4 |
| 20260502224605 | 56 | 299 | 0.9 | 22.6 | 0.00 | 0.00 | 0.00 | 40 | 1011.4 |
| 20260502223054 | 56 | 266 | 7.8 | 14.8 | 0.00 | 0.00 | 0.00 | 40 | 1011.3 |
| 20260502221552 | 56 | 360 | 0.0 | 5.2 | 0.00 | 0.00 | 0.00 | 42 | 1011.2 |
| 20260502220050 | 56 | 360 | 5.2 | 13.0 | 0.00 | 0.00 | 0.00 | 40 | 1011.0 |
| 20260502214550 | 56 | 285 | 6.1 | 14.8 | 0.00 | 0.00 | 0.00 | 40 | 1010.8 |
| 20260502213058 | 57 | 318 | 6.1 | 16.5 | 0.00 | 0.00 | 0.00 | 41 | 1010.5 |
| 20260502211600 | 56 | 315 | 6.1 | 12.2 | 0.00 | 0.00 | 0.00 | 42 | 1010.3 |
| 20260502210048 | 56 | 301 | 3.5 | 16.5 | 0.00 | 0.00 | 0.00 | 40 | 1010.2 |